sat.trackr.live / text

‹ back to catalog

STARLINK-32037

NORAD 60283 · 2024-132F

PAYLOAD ACTIVE UNKNOWN

§ Identity

Operator
Country
US
Launch date
2024-07-28
Launch site
AFETR
Launch vehicle
Mass (kg)
RCS (m²)

Purposes: comms

External: N2YO · Heavens-Above · Gunter

§ Orbital elements

Epoch: 2026-09-21T14:54:00.725472Z

Period
94.01 min
Inclination
53.1582°
Eccentricity
0.0001709
Mean motion
15.31696569 rev/d
Perigee alt
469.6 km
Apogee alt
471.9 km
Semi-major
6,848.9 km
B*
-1.1886e-5
RAAN
221.2665°
Arg perigee
85.2634°
Mean anomaly
274.8563°
Rev number
12,157

§ Raw data

STARLINK-320371 60283U 24132F   26264.62084173 -.00000734  00000+0 -11886-4 0  99952 60283  53.1582 221.2665 0001709  85.2634 274.8563 15.31696569121576

JSON: /api/v1/satellites/60283 · /tle

For live sub-satellite position, see the globe view (requires WebGL).

§ Visibility from observer

Set your observer location to see the next 7 days of passes ≥ 10°. The values pass through the URL so the page stays shareable.

No JS? Fill the form by hand. The geolocation button needs JavaScript.